sat.trackr.live / text

‹ back to catalog

STARLINK-30968

NORAD 58511 · 2023-191D

PAYLOAD ACTIVE UNKNOWN

§ Identity

Operator
Country
US
Launch date
2023-12-07
Launch site
AFETR
Launch vehicle
Mass (kg)
RCS (m²)

Purposes: comms

External: N2YO · Heavens-Above · Gunter

§ Orbital elements

Epoch: 2026-05-24T23:15:54.550368Z

Period
94.27 min
Inclination
43.0018°
Eccentricity
0.0001211
Mean motion
15.27598751 rev/d
Perigee alt
482.2 km
Apogee alt
483.8 km
Semi-major
6,861.1 km
B*
1.1953e-4
RAAN
32.9633°
Arg perigee
274.9456°
Mean anomaly
85.1257°
Rev number
13,713

§ Raw data

STARLINK-309681 58511U 23191D   26144.96938137  .00003030  00000+0  11953-3 0  99962 58511  43.0018  32.9633 0001211 274.9456  85.1257 15.27598751137139

JSON: /api/v1/satellites/58511 · /tle

For live sub-satellite position, see the globe view (requires WebGL).

§ Visibility from observer

Set your observer location to see the next 7 days of passes ≥ 10°. The values pass through the URL so the page stays shareable.

No JS? Fill the form by hand. The geolocation button needs JavaScript.